Total_Precipitation_Accumulation
1.56 1.75 1.73 1.58 1.57 1.68 1.61 1.59 1.72 1.76 1.75 1.79 1.78 1.75 1.73 1.85 2.02 2.19 2.18 2.33 2.45 2.50 2.50 2.42 2.33 2.35 2.44 2.35 2.45 2.60 2.80 3.00 2.77 2.44 2.30 2.23 2.17 2.01 1.86 1.59 1.42 1.32 1.19
1.83 2.05 2.05 1.76 1.60 1.53 1.40 1.42 1.62 1.81 1.83 1.80 1.76 1.73 1.67 1.75 1.99 2.16 2.29 2.55 2.67 2.58 2.48 2.44 2.33 2.41 2.51 2.46 2.50 2.49 2.55 2.80 2.74 2.56 2.50 2.52 2.39 2.16 2.05 1.83 1.51 1.35 1.32
1.64 1.89 1.83 1.59 1.43 1.38 1.39 1.45 1.61 1.75 1.76 1.71 1.72 1.75 1.86 1.96 2.16 2.31 2.42 2.61 2.58 2.46 2.46 2.38 2.26 2.29 2.26 2.32 2.36 2.33 2.29 2.35 2.53 2.49 2.42 2.50 2.41 2.20 2.12 1.95 1.79 1.84 1.66
1.20 1.47 1.48 1.34 1.29 1.31 1.38 1.40 1.40 1.43 1.50 1.55 1.74 1.96 2.13 2.25 2.35 2.41 2.41 2.39 2.38 2.28 2.19 2.10 2.08 2.15 2.22 2.24 2.16 2.13 2.16 2.25 2.33 2.36 2.37 2.47 2.49 2.45 2.30 2.15 2.12 2.08 1.91
1.08 1.30 1.28 1.25 1.24 1.21 1.21 1.28 1.34 1.41 1.48 1.69 1.87 1.98 2.02 2.07 2.14 2.27 2.28 2.21 2.16 2.06 1.94 1.76 1.77 2.02 2.13 2.10 1.95 2.03 2.12 2.20 2.25 2.35 2.40 2.49 2.55 2.66 2.42 2.14 2.08 2.15 2.04
0.98 1.20 1.20 1.17 1.14 1.09 1.12 1.20 1.38 1.48 1.64 1.82 1.87 1.85 1.81 1.58 1.67 1.79 1.84 1.85 1.84 1.79 1.68 1.60 1.61 1.71 1.71 1.71 1.70 1.70 1.76 1.86 2.06 2.31 2.44 2.44 2.40 2.48 2.52 2.38 2.28 2.23 2.20
0.96 1.14 1.22 1.19 1.20 1.17 1.14 1.31 1.50 1.66 1.82 1.94 1.92 1.88 1.78 1.71 1.60 1.47 1.44 1.47 1.58 1.60 1.61 1.66 1.46 1.34 1.46 1.49 1.57 1.53 1.48 1.56 1.69 1.94 2.15 2.17 2.24 2.24 2.47 2.46 2.48 2.54 2.53
1.00 1.22 1.31 1.25 1.28 1.36 1.38 1.47 1.69 1.91 2.06 2.07 2.02 1.94 1.90 1.85 1.74 1.51 1.42 1.36 1.50 1.55 1.55 1.57 1.55 1.48 1.46 1.55 1.60 1.53 1.41 1.37 1.35 1.33 1.54 1.82 2.03 2.22 2.27 2.32 2.40 2.47 2.47
1.04 1.21 1.32 1.38 1.47 1.50 1.54 1.72 1.93 2.12 2.17 2.12 2.14 2.09 2.04 2.06 1.90 1.55 1.38 1.36 1.54 1.58 1.57 1.54 1.51 1.47 1.50 1.38 1.34 1.36 1.35 1.31 1.17 1.17 1.24 1.45 1.64 1.68 1.87 2.09 2.29 2.26 2.20
1.37 1.44 1.62 1.80 1.96 2.04 2.09 2.16 2.21 2.28 2.19 2.15 2.15 2.18 2.12 2.11 2.01 1.52 1.30 1.30 1.49 1.54 1.61 1.58 1.48 1.36 1.32 1.19 1.17 1.31 1.29 1.27 1.26 1.19 1.11 1.13 1.20 1.33 1.39 1.45 1.73 1.93 1.85
1.66 1.74 1.94 2.23 2.41 2.41 2.42 2.36 2.29 2.29 2.29 2.26 2.19 2.19 2.15 2.08 1.99 1.58 1.38 1.40 1.55 1.64 1.63 1.60 1.54 1.40 1.20 1.14 1.08 1.12 1.16 1.15 1.20 1.23 1.19 1.14 1.21 1.31 1.26 1.22 1.35 1.54 1.60
1.88 2.04 2.23 2.47 2.42 2.34 2.52 2.46 2.42 2.49 2.46 2.34 2.26 2.18 2.20 2.16 1.98 1.66 1.42 1.46 1.61 1.73 1.79 1.74 1.64 1.43 1.19 1.09 1.00 0.97 0.93 0.87 0.91 1.04 1.08 1.03 1.07 1.17 1.24 1.21 1.24 1.29 1.35
2.07 2.18 2.24 2.33 2.52 2.68 2.75 2.65 2.57 2.55 2.49 2.31 2.20 2.07 2.00 2.06 2.09 1.68 1.40 1.45 1.53 1.58 1.74 1.76 1.50 1.27 1.11 0.96 0.92 0.89 0.79 0.73 0.84 0.92 0.92 0.91 0.90 1.00 1.19 1.32 1.34 1.34 1.29
1.97 1.95 2.03 2.18 2.33 2.43 2.66 2.72 2.63 2.49 2.42 2.36 2.26 2.11 2.02 2.03 2.03 1.70 1.38 1.36 1.43 1.42 1.51 1.57 1.42 1.24 1.09 0.97 0.91 0.86 0.81 0.82 0.90 0.92 0.94 0.97 0.98 1.03 1.12 1.20 1.29 1.33 1.30
1.92 1.87 1.87 1.90 2.00 2.09 2.19 2.29 2.27 2.24 2.06 1.97 1.88 1.83 1.81 1.84 1.80 1.55 1.36 1.35 1.47 1.52 1.47 1.49 1.49 1.36 1.22 1.11 1.08 1.10 1.11 1.06 0.99 0.98 1.01 1.02 1.00 0.99 1.04 1.10 1.18 1.21 1.16
1.78 1.71 1.73 1.75 1.81 1.85 1.85 1.79 1.62 1.55 1.40 1.26 1.22 1.18 1.20 1.25 1.35 1.19 1.07 1.16 1.31 1.37 1.30 1.33 1.43 1.42 1.34 1.25 1.19 1.19 1.18 1.11 1.04 1.05 1.03 1.01 0.99 0.95 0.98 1.02 1.06 1.08 1.06
1.79 1.65 1.54 1.49 1.54 1.55 1.61 1.71 1.76 1.55 1.33 1.15 1.02 0.89 0.87 0.96 1.05 1.05 1.00 1.03 1.11 1.13 1.10 1.17 1.27 1.31 1.27 1.24 1.18 1.15 1.10 1.10 1.11 1.07 1.03 1.03 1.01 0.96 0.94 0.97 0.99 1.05 1.04
1.69 1.60 1.48 1.44 1.47 1.49 1.54 1.62 1.73 1.72 1.46 1.13 0.98 0.86 0.74 0.73 0.75 0.79 0.79 0.84 0.93 0.96 0.97 1.04 1.09 1.14 1.14 1.15 1.14 1.13 1.09 1.10 1.09 1.07 1.03 1.02 1.02 0.97 0.97 0.99 0.96 0.97 1.03
1.51 1.45 1.38 1.41 1.44 1.43 1.48 1.51 1.53 1.54 1.43 1.26 1.06 0.87 0.71 0.60 0.61 0.65 0.64 0.71 0.87 0.91 0.90 0.93 0.94 0.95 0.99 1.03 1.03 1.07 1.06 1.03 1.02 1.06 1.02 0.99 1.01 1.02 1.02 1.01 1.01 1.01 1.02
1.36 1.25 1.16 1.21 1.25 1.25 1.29 1.31 1.30 1.34 1.32 1.24 1.10 0.85 0.63 0.57 0.65 0.72 0.71 0.80 0.89 0.89 0.84 0.87 0.83 0.82 0.87 0.94 0.99 1.04 1.04 1.05 1.07 1.05 1.02 1.00 0.99 1.00 0.98 0.98 1.01 1.03 1.04
1.27 1.09 0.88 0.83 0.91 1.00 1.10 1.16 1.17 1.16 1.17 1.13 0.97 0.71 0.51 0.46 0.59 0.74 0.83 0.87 0.86 0.86 0.80 0.75 0.71 0.73 0.78 0.84 0.89 0.92 0.97 1.04 1.03 1.02 1.06 1.02 0.98 0.99 0.97 0.98 0.97 0.98 1.01
1.16 1.04 0.89 0.80 0.83 0.88 0.96 1.05 1.07 1.03 1.01 0.98 0.86 0.67 0.52 0.45 0.56 0.68 0.75 0.75 0.74 0.75 0.73 0.69 0.66 0.70 0.72 0.76 0.82 0.87 0.92 0.95 0.97 0.99 1.02 1.01 1.00 0.98 0.98 1.02 1.02 1.01 1.02
1.09 1.00 0.88 0.80 0.82 0.82 0.86 0.97 0.97 0.92 0.88 0.83 0.76 0.67 0.59 0.59 0.64 0.70 0.71 0.70 0.70 0.68 0.66 0.65 0.63 0.62 0.67 0.70 0.72 0.78 0.85 0.85 0.86 0.89 0.95 0.99 1.00 1.00 1.04 1.05 1.01 0.97 0.98
1.02 0.98 0.84 0.78 0.79 0.84 0.83 0.85 0.82 0.78 0.74 0.69 0.65 0.63 0.62 0.65 0.67 0.66 0.66 0.65 0.64 0.59 0.56 0.58 0.59 0.59 0.63 0.67 0.67 0.67 0.69 0.71 0.72 0.76 0.82 0.88 0.90 0.97 1.03 1.06 1.02 0.99 1.05
0.95 0.97 0.87 0.78 0.77 0.78 0.78 0.77 0.73 0.71 0.66 0.61 0.58 0.57 0.58 0.60 0.61 0.65 0.64 0.60 0.55 0.53 0.49 0.51 0.57 0.57 0.54 0.55 0.56 0.55 0.60 0.58 0.57 0.64 0.74 0.84 0.85 0.91 1.02 1.06 1.05 1.05 1.12
0.83 0.86 0.81 0.73 0.69 0.70 0.70 0.76 0.76 0.70 0.64 0.57 0.56 0.57 0.53 0.50 0.49 0.51 0.50 0.48 0.47 0.48 0.48 0.49 0.52 0.53 0.51 0.49 0.48 0.49 0.47 0.44 0.46 0.55 0.61 0.70 0.80 0.87 0.93 0.98 0.97 1.05 1.12